DW9227 Weather Reports


Display with metric or nautical units.
time (UTC)temp
F
wind
direction
speed
MPH
gust
MPH
rain 1hr
in
rain 24hr
in
rain mn
in
humidity
%
barometer
mb
20260504034524 56 82 0.0 0.0 0.00 0.00 0.00 76 1017.0
20260504033022 56 82 0.0 0.0 0.00 0.00 0.00 76 1017.2
20260504031522 56 82 0.0 0.0 0.00 0.00 0.00 75 1017.3
20260504030020 56 82 0.0 0.0 0.00 0.00 0.00 75 1017.1
20260504024521 56 82 0.0 0.0 0.00 0.00 0.00 74 1017.2
20260504023018 57 82 0.0 0.0 0.00 0.00 0.00 74 1017.2
20260504021518 56 82 0.0 0.0 0.00 0.00 0.00 75 1017.3
20260504020018 57 82 0.0 0.0 0.00 0.00 0.00 74 1017.3
20260504014523 57 82 0.0 0.0 0.00 0.00 0.00 73 1017.1
20260504013012 58 82 0.0 0.0 0.00 0.00 0.00 72 1017.1
20260504011512 58 82 0.0 0.0 0.00 0.00 0.00 71 1017.1
20260504010009 58 82 0.0 0.0 0.00 0.00 0.00 70 1017.3
20260504004516 58 82 0.0 0.0 0.00 0.00 0.00 73 1017.5
20260504003007 58 82 0.0 0.0 0.00 0.00 0.00 73 1017.4
20260504001507 58 82 0.0 0.0 0.00 0.00 0.00 72 1017.4
20260504000005 58 82 0.0 0.0 0.00 0.00 0.00 75 1017.6
20260503234503 58 82 0.0 0.0 0.00 0.00 0.00 75 1017.9
20260503233102 58 82 0.0 0.0 0.00 0.00 0.00 74 1018.0
20260503231559 59 82 0.0 0.0 0.00 0.00 0.00 74 1018.1
20260503230058 59 82 0.0 0.0 0.00 0.00 0.00 73 1018.2
20260503224555 59 82 0.0 0.0 0.00 0.00 0.00 73 1018.4
20260503223054 59 82 0.0 0.0 0.00 0.00 0.00 72 1018.4
20260503221559 59 82 0.0 0.0 0.00 0.00 0.00 71 1018.4
20260503220052 59 82 0.0 0.0 0.00 0.00 0.00 71 1018.3
20260503214550 60 82 0.0 0.0 0.00 0.00 0.00 70 1018.3
20260503213050 60 82 0.0 0.0 0.00 0.00 0.00 70 1018.3
20260503211548 60 82 0.0 0.0 0.00 0.00 0.00 68 1018.3
20260503210049 61 82 0.0 0.0 0.00 0.00 0.00 68 1018.2
20260503204547 61 82 0.0 0.0 0.00 0.00 0.00 66 1018.2
20260503203055 62 82 0.0 0.0 0.00 0.00 0.00 64 1018.2
20260503201550 63 82 0.0 0.0 0.00 0.00 0.00 62 1018.1
20260503200053 64 82 0.0 0.0 0.00 0.00 0.00 61 1017.9
20260503194555 64 82 0.0 0.0 0.00 0.00 0.00 60 1017.7
20260503193045 64 82 0.0 2.0 0.00 0.00 0.00 60 1017.7
20260503191546 64 81 0.0 0.0 0.00 0.00 0.00 60 1017.6
20260503190048 65 81 0.0 0.0 0.00 0.00 0.00 57 1017.3
20260503184541 66 81 0.0 0.0 0.00 0.00 0.00 55 1017.2
20260503183041 66 81 0.0 0.0 0.00 0.00 0.00 53 1017.1
20260503181542 67 81 0.0 0.0 0.00 0.00 0.00 52 1017.0
20260503180055 67 81 0.0 5.0 0.00 0.00 0.00 51 1017.0
20260503174539 68 84 0.0 1.0 0.00 0.00 0.00 51 1017.0
20260503173040 68 84 0.0 2.0 0.00 0.00 0.00 52 1017.0
20260503171545 68 84 0.0 0.0 0.00 0.00 0.00 53 1017.1
20260503081544 63 267 0.0 0.0 0.00 0.00 0.00 57 1019.5
20260503071536 60 130 0.0 5.0 0.00 0.00 0.00 62 1020.1
20260503054526 55 130 0.0 0.0 0.00 0.00 0.00 71 1020.6
20260503053023 54 130 0.0 0.0 0.00 0.00 0.00 74 1020.6
20260503051521 54 130 0.0 0.0 0.00 0.00 0.00 74 1020.5
20260503050033 53 130 0.0 0.0 0.00 0.00 0.00 74 1020.5
20260503044521 53 130 0.0 0.0 0.00 0.00 0.00 75 1020.5
20260503043019 53 130 0.0 0.0 0.00 0.00 0.00 74 1020.5
20260503041525 53 130 0.0 0.0 0.00 0.00 0.00 74 1020.5
20260503040017 54 130 0.0 0.0 0.00 0.00 0.00 73 1020.6